ONEWEB-0217, 48245

Orbit data source: Space-Track

ONEWEB-0217, 48245 is a payload satellite owned by One Web (NAA) (UK) in LEO that was launched on Sun, 25 Apr 2021 UTC via a SOYUZ-2-1B launch vehicle from the Vostochny Cosmodrome (VOSTO). Payload-class satellites include a variety of spacecraft equipped with specific instruments for various scientific and technological missions. These include communications satellites like Starlink; space stations such as the ISS; scientific satellites like the Hubble; Earth observation satellites from companies like Planet Labs, Umbra, and HawkEye 360; GPS; miniature CubeSats for education and research; and military/defense satellites.

Loading next visibility...
Identifier
48245, 2021-031AM
Orbit
LEO
Country
Flag of UKUK
Related business
Manufacturer
One Web
Mission
Operational Commercial Communications
Bus & Motor
ARROW, Unknown motor
Mass
148 kg wet, ~140 kg dry
Launch date (UTC)
2021-04-25 (5 years ago)
Launch vehicle
SOYUZ-2-1B
Launch site
Vostochny Cosmodrome (VOSTO)
Object type
Payload
Rocket body
Debris
Shape & HBR
Trap Box + 2 Pan, 6.7 m
Radar Cross Section
3.464 m², Large (>1 m²)

Expand to show TLE details & history
Last TLE update: 1 day ago

TLE from 1 day ago
0 ONEWEB-0217
1 48245U 21031AM  25305.54716379  .00000124  00000-0  29982-3 0  9997
2 48245  87.9023 335.0345 0002217  95.8907 264.2475 13.14503664218270
Epoch: 2025-11-01T13:07Z
TLE epoch observation values (Epoch: 2025-11-01T13:07:54.951Z)
Latitude
-0.00007°
Longitude
96.97986°
Altitude
1,208.85 km
Speed
7.25 km/s
True Right ascension
22h 20m 08s
True Declination
0° 00' 00"
Sunlit
Object was in daylight at epoch
Visualization orbit readout
Latitude
Unknown
Longitude
Unknown
Altitude
Unknown
Speed
Unknown
Apparent Right ascension
Unknown
Apparent Declination
Unknown
Sunlit
N/A
Visualization observer readout
Local Sidereal Time
09:16:11
Azimuth
Unknown
Elevation
Unknown
Doppler factor
Unknown
Orbital elements
Apogee altitude
1,204.581 km
Perigee altitude
1,201.22 km
Semi-major axis
7,581.038 km
Eccentricity
0.00022
Inclination
87.9023°
RAAN
335.0345°
Arg. of periapsis
95.8907°
True anomaly
264.22222°
Mean anomaly
264.2475°
Eccentric anomaly
264.23486°
Mean motion
3.28814 °/min
Orbital period
109.48 mins
BSTAR
0.00029982
Loading maneuver chart data...
Computing Atmospheric mass density...
Loading historical data...
Loading historical data...
Loading historical data...
Loading historical data...
Loading historical data...
Loading historical data...
Loading historical data...

Documentation

Showing up to 5 results
|